Weather reports worldwide

Advertisment
Boscombe Down, United Kingdom (3746): temperature & dewpoint: 16.06.2018 19:00:00 - 22.06.2018 19:00:00 (BST)Boscombe Down, United Kingdom (3746): wind speed: 16.06.2018 19:00:00 - 22.06.2018 19:00:00 (BST)Boscombe Down, United Kingdom (3746): wind direction: 16.06.2018 19:00:00 - 22.06.2018 19:00:00 (BST)Boscombe Down, United Kingdom (3746): reduced air pressure: 16.06.2018 19:00:00 - 22.06.2018 19:00:00 (BST)Boscombe Down, United Kingdom (3746): visibility: 16.06.2018 19:00:00 - 22.06.2018 19:00:00 (BST)Boscombe Down, United Kingdom (3746): precipitation: 16.06.2018 19:00:00 - 22.06.2018 19:00:00 (BST)
Date & Time tt [°C] td [°C] ff [km/h] ff [kn] dd ppp [hPa] vv [km] rr [mm]
22.06.2018 19:00:00 19,8 6,5 13 7 NNE 1029,5 50 -
22.06.2018 18:00:00 20,7 6,2 11 6 N 1029,6 30 0,0
22.06.2018 17:00:00 21,8 7,3 9 5 N 1029,7 29 0,0
22.06.2018 16:00:00 19,9 6,3 11 6 N 1030,1 10 0,0
22.06.2018 15:00:00 20,7 7,3 9 5 N 1030,1 10 0,0
22.06.2018 14:00:00 18,8 5,9 8 4 NNE 1030,6 10 0,0
22.06.2018 13:00:00 18,9 6,9 11 6 N 1031,0 10 0,0
22.06.2018 12:00:00 18,6 7,0 13 7 N 1031,1 10 0,0
22.06.2018 11:00:00 16,4 6,5 15 8 NNE 1031,1 10 0,0
22.06.2018 10:00:00 15,8 7,6 16 9 NNE 1031,2 30 0,0
22.06.2018 09:00:00 14,6 8,0 18 10 N 1031,6 10 0,0
22.06.2018 08:00:00 11,7 7,2 15 8 NNW 1031,8 10 0,0
22.06.2018 07:00:00 8,9 5,2 13 7 WNW 1031,5 10 0,0
22.06.2018 06:00:00 6,9 4,3 15 8 WNW 1031,6 13 0,0
22.06.2018 05:00:00 5,7 3,5 16 9 NW 1031,5 12 0,0
22.06.2018 04:00:00 6,0 3,6 15 8 NW 1031,4 8 0,0
22.06.2018 03:00:00 7,0 4,0 11 6 NW 1031,1 50 0,0
22.06.2018 02:00:00 7,0 4,3 8 4 NNW 1031,0 10 0,0
22.06.2018 01:00:00 7,8 4,9 11 6 N 1031,1 10 0,0
22.06.2018 00:00:00 10,1 4,4 18 10 N 1030,8 10 0,0
21.06.2018 23:00:00 11,1 4,3 15 8 N 1030,6 10 0,0
21.06.2018 22:00:00 12,7 4,8 11 6 N 1029,8 10 0,0
21.06.2018 21:00:00 15,1 3,8 18 10 N 1029,3 10 0,0
21.06.2018 20:00:00 16,4 2,5 22 12 N 1028,8 10 0,0
21.06.2018 19:00:00 17,4 2,1 22 12 NNW 1028,4 40 0,0
21.06.2018 18:00:00 18,2 2,5 26 14 N 1028,0 10 0,0
21.06.2018 17:00:00 18,4 2,5 26 14 N 1027,6 10 0,0
21.06.2018 16:00:00 19,1 2,8 22 12 N 1027,4 10 0,0
21.06.2018 15:00:00 18,8 3,4 26 14 N 1027,2 10 0,0
21.06.2018 14:00:00 18,5 3,3 26 14 NNW 1026,9 10 0,0
21.06.2018 13:00:00 17,8 4,2 24 13 NNW 1026,7 10 0,0
21.06.2018 12:00:00 16,9 3,6 26 14 N 1026,6 10 0,0
21.06.2018 11:00:00 16,2 4,0 28 15 NNW 1026,4 10 0,0
21.06.2018 10:00:00 14,6 4,2 34 18 NNW 1026,1 10 0,0
21.06.2018 09:00:00 13,0 4,8 26 14 NNW 1025,9 10 0,0
21.06.2018 08:00:00 11,8 5,9 15 8 NW 1025,4 40 0,0
21.06.2018 07:00:00 10,4 6,0 18 10 NW 1024,9 10 0,0
21.06.2018 06:00:00 8,8 6,3 9 5 NW 1024,5 45 0,0
21.06.2018 05:00:00 8,9 6,2 15 8 NW 1024,0 50 0,0
21.06.2018 04:00:00 9,3 6,8 15 8 NW 1023,9 40 0,0
21.06.2018 03:00:00 10,5 6,5 15 8 NNW 1023,2 10 0,0
21.06.2018 02:00:00 12,7 7,2 21 11 NNW 1022,5 50 0,0
21.06.2018 01:00:00 12,8 8,8 9 5 NNW 1022,3 50 0,0
21.06.2018 00:00:00 13,9 9,1 18 10 NNW 1021,8 50 0,0
20.06.2018 23:00:00 14,3 12,4 11 6 WNW 1021,2 45 0,0
20.06.2018 22:00:00 14,6 12,5 13 7 WNW 1020,8 50 0,0
20.06.2018 21:00:00 16,6 12,9 15 8 W 1020,2 10 0,0
20.06.2018 20:00:00 18,6 14,3 18 10 W 1019,9 50 0,0
20.06.2018 19:00:00 17,9 15,3 15 8 WNW 1019,9 35 0,0
20.06.2018 18:00:00 18,7 16,0 18 10 NW 1019,9 10 0,0
20.06.2018 17:00:00 19,7 16,3 16 9 WNW 1019,9 10 0,0
20.06.2018 16:00:00 20,5 16,1 16 9 SW 1019,9 10 0,0
20.06.2018 15:00:00 20,5 15,9 16 9 SSW 1019,9 10 0,0
20.06.2018 14:00:00 22,2 15,9 21 11 SW 1020,1 10 0,0
20.06.2018 13:00:00 19,2 15,3 18 10 SSW 1020,8 10 0,0
20.06.2018 12:00:00 19,6 15,4 22 12 SW 1020,8 10 0,0
20.06.2018 11:00:00 19,1 15,4 16 9 SSW 1021,0 10 0,0
20.06.2018 10:00:00 17,7 14,8 22 12 SSW 1021,3 10 0,0
20.06.2018 09:00:00 15,8 14,1 18 10 S 1021,5 10 0,0
20.06.2018 08:00:00 14,7 14,3 15 8 SSW 1021,6 10 0,0
20.06.2018 07:00:00 14,4 13,9 13 7 SSW 1021,6 10 0,0
20.06.2018 06:00:00 14,3 14,2 15 8 SSW 1021,3 4,8 0,0
20.06.2018 05:00:00 14,3 14,3 11 6 SSW 1021,3 1,0 0,0
20.06.2018 04:00:00 14,2 14,2 13 7 S 1021,5 1,0 0,0
20.06.2018 03:00:00 13,9 13,9 11 6 S 1021,8 0,1 0,0
20.06.2018 02:00:00 13,8 13,7 15 8 S 1022,3 0,1 0,0
20.06.2018 01:00:00 13,9 13,5 8 4 S 1022,6 4,6 0,0
20.06.2018 00:00:00 15,0 14,4 11 6 SSW 1022,8 13 0,0
19.06.2018 23:00:00 15,7 14,7 11 6 SSW 1023,0 26 0,0
19.06.2018 22:00:00 17,1 15,5 11 6 S 1023,1 45 0,0
19.06.2018 21:00:00 18,6 15,9 15 8 SW 1022,7 45 0,0
19.06.2018 20:00:00 19,8 16,0 21 11 SSW 1022,6 50 0,0
19.06.2018 19:00:00 21,2 16,4 22 12 SSW 1022,6 45 0,0
19.06.2018 18:00:00 21,7 16,5 16 9 SW 1022,6 10 0,0
19.06.2018 17:00:00 21,8 16,0 16 9 SW 1022,8 40 0,0
19.06.2018 16:00:00 21,0 16,4 16 9 SSW 1023,1 10 0,0
19.06.2018 15:00:00 21,1 15,7 15 8 SW 1023,3 10 0,0
19.06.2018 14:00:00 20,8 15,6 11 6 SW 1023,4 10 0,0
19.06.2018 13:00:00 20,2 14,8 18 10 SW 1023,6 10 0,0
19.06.2018 12:00:00 19,9 14,8 15 8 W 1023,8 10 0,0
19.06.2018 11:00:00 19,2 14,7 15 8 W 1023,7 10 0,0
19.06.2018 10:00:00 18,4 15,5 13 7 WSW 1023,8 10 0,0
19.06.2018 09:00:00 16,4 15,5 11 6 WSW 1024,0 10 0,0
19.06.2018 08:00:00 16,6 15,2 13 7 W 1023,5 10 0,0
19.06.2018 07:00:00 15,6 15,0 11 6 W 1023,3 10 0,0
19.06.2018 06:00:00 15,4 14,9 15 8 WNW 1023,1 10 0,2
19.06.2018 05:00:00 15,7 15,3 11 6 W 1022,5 50 0,0
19.06.2018 04:00:00 16,1 15,0 15 8 W 1022,1 28 0,0
19.06.2018 03:00:00 16,4 14,8 16 9 WSW 1021,9 50 0,0
19.06.2018 02:00:00 16,6 14,8 22 12 W 1021,8 50 0,0
19.06.2018 01:00:00 16,6 14,9 18 10 WSW 1021,9 50 0,0
19.06.2018 00:00:00 16,6 15,2 22 12 WSW 1021,9 10 0,0
18.06.2018 23:00:00 16,8 15,6 18 10 WSW 1022,0 10 0,0
18.06.2018 22:00:00 16,7 15,6 15 8 SSW 1021,5 10 0,0
18.06.2018 21:00:00 16,9 15,4 16 9 SSW 1021,0 10 0,0
18.06.2018 20:00:00 17,5 15,0 22 12 SSW 1020,7 10 0,0
18.06.2018 19:00:00 18,1 14,7 24 13 SSW 1020,4 10 0,0
18.06.2018 18:00:00 18,5 14,4 18 10 SSW 1020,4 10 0,0
18.06.2018 17:00:00 18,6 13,6 24 13 SSW 1020,4 10 0,0
18.06.2018 16:00:00 20,2 13,7 24 13 SW 1020,3 10 0,0
18.06.2018 15:00:00 21,3 13,7 24 13 WSW 1020,1 40 0,0
18.06.2018 14:00:00 20,3 12,4 18 10 W 1020,2 10 0,0
18.06.2018 13:00:00 20,9 11,1 24 13 W 1020,4 10 0,0
18.06.2018 12:00:00 18,9 9,7 26 14 W 1020,3 10 0,0
18.06.2018 11:00:00 17,8 11,0 29 16 W 1020,2 10 0,0
18.06.2018 10:00:00 15,7 11,1 22 12 W 1020,1 10 0,0
18.06.2018 09:00:00 15,0 11,3 18 10 W 1020,0 10 0,0
18.06.2018 08:00:00 14,3 11,9 18 10 W 1019,5 10 0,0
18.06.2018 07:00:00 13,6 11,9 18 10 WSW 1018,8 10 0,0
18.06.2018 06:00:00 13,1 12,4 15 8 WSW 1018,1 50 0,0
18.06.2018 05:00:00 13,2 12,4 13 7 WSW 1017,9 10 0,0
18.06.2018 04:00:00 13,6 12,6 13 7 WSW 1017,9 6 0,0
18.06.2018 03:00:00 14,1 12,8 16 9 W 1017,5 10 0,0
18.06.2018 02:00:00 14,7 14,1 28 15 W 1017,2 50 0,0
18.06.2018 01:00:00 14,8 14,6 11 6 SW 1017,3 3,3 0,0
18.06.2018 00:00:00 14,6 14,5 15 8 SSW 1017,1 3,5 0,0
17.06.2018 23:00:00 14,5 14,4 16 9 SSW 1017,2 2,4 0,0
17.06.2018 22:00:00 14,6 14,3 16 9 SSW 1016,9 3,3 0,0
17.06.2018 21:00:00 14,4 14,1 21 11 SSW 1016,4 3,7 0,0
17.06.2018 20:00:00 14,4 14,0 22 12 SSW 1016,5 5 0,0
17.06.2018 19:00:00 14,1 13,7 21 11 SSW 1016,6 3,0 0,0
17.06.2018 18:00:00 14,0 13,1 22 12 SSW 1016,2 7 0,0
17.06.2018 17:00:00 14,1 12,5 28 15 SSW 1016,6 12 0,0
17.06.2018 16:00:00 14,3 12,2 31 17 SW 1016,9 20 0,0
17.06.2018 15:00:00 15,0 11,5 26 14 SSW 1016,7 35 0,0
17.06.2018 14:00:00 14,9 11,5 22 12 SSW 1016,7 45 0,2
17.06.2018 13:00:00 15,5 10,1 21 11 SSW 1016,8 35 0,0
17.06.2018 12:00:00 14,8 9,5 24 13 SW 1017,1 45 0,0
17.06.2018 11:00:00 15,9 9,6 21 11 SW 1016,8 10 0,0
17.06.2018 10:00:00 15,0 10,5 18 10 WSW 1017,0 35 0,0
17.06.2018 09:00:00 13,7 10,4 18 10 WSW 1017,2 10 0,0
17.06.2018 08:00:00 12,4 10,8 13 7 SSW 1016,9 35 0,0
17.06.2018 07:00:00 11,5 10,4 13 7 SW 1016,6 16 0,8
17.06.2018 06:00:00 11,7 9,7 15 8 WSW 1016,1 35 0,0
17.06.2018 05:00:00 12,1 9,2 15 8 SW 1015,9 40 0,0
17.06.2018 04:00:00 12,3 9,1 22 12 WSW 1015,6 10 0,0
17.06.2018 03:00:00 12,2 9,4 15 8 WSW 1015,8 35 0,0
17.06.2018 02:00:00 12,9 8,8 16 9 WSW 1015,8 40 0,0
17.06.2018 01:00:00 12,9 9,0 18 10 WSW 1015,8 40 0,0
17.06.2018 00:00:00 13,2 8,5 18 10 WSW 1015,6 45 0,0
16.06.2018 23:00:00 13,3 8,7 18 10 WSW 1015,6 50 0,0
16.06.2018 22:00:00 13,5 8,3 13 7 W 1015,2 50 0,0
16.06.2018 21:00:00 13,7 8,2 15 8 W 1014,7 10 0,0
16.06.2018 20:00:00 14,4 8,4 16 9 W 1014,4 10 0,0
16.06.2018 19:00:00 15,0 9,3 26 14 W 1014,0 10 0,0

tt = temperature
td = dewpoint
ff = wind speed
dd = wind direction
ppp = reduced air pressure
vv = visibility
rr = precipitation

Next stations